When you browse on this site, cookies collect data to enhance your experience and personalize the content and advertising you see.
Visit our Privacy Policy to learn more. By continuing to use the site, you agree to this use of cookies and data.
  • In Portugal
  • List of Countries
  • For 7 days
  • Water Temperature
  • Satellite Maps
  • Weather Map
  • Weather Widgets
  • user-avatar
    Login

    Hourly Weather Graz

    Today, 23 May, Thursday

    Time Temperature Precipitation Wind Pressure Humidity
    00:00 +12°C° 0 mm 2 mps 724 mmHg 82%
    01:00 +10°C° 0 mm 2 mps 724 mmHg 84%
    02:00 +10°C° 0.1 mm 2 mps 724 mmHg 85%
    03:00 +11°C° 0.1 mm 1 mps 724 mmHg 86%
    04:00 +11°C° 0.1 mm 1 mps 724 mmHg 87%
    05:00 +12°C° 0.1 mm 1 mps 725 mmHg 84%
    06:00 +13°C° 0.1 mm 1 mps 725 mmHg 81%
    07:00 +14°C° 0.1 mm 1 mps 725 mmHg 77%
    08:00 +16°C° 0 mm 1 mps 725 mmHg 69%
    09:00 +18°C° 0 mm 1 mps 725 mmHg 62%
    10:00 +20°C° 0 mm 1 mps 725 mmHg 54%
    11:00 +21°C° 0 mm 1 mps 725 mmHg 48%
    12:00 +22°C° 0 mm 1 mps 725 mmHg 43%
    13:00 +23°C° 0 mm 1 mps 725 mmHg 38%
    14:00 +23°C° 0 mm 1 mps 724 mmHg 38%
    15:00 +23°C° 0 mm 2 mps 724 mmHg 38%
    16:00 +23°C° 0 mm 2 mps 724 mmHg 38%
    17:00 +21°C° 0 mm 1 mps 724 mmHg 48%
    18:00 +19°C° 0 mm 1 mps 724 mmHg 58%
    19:00 +16°C° 0 mm 1 mps 724 mmHg 68%
    20:00 +15°C° 0 mm 1 mps 724 mmHg 74%
    21:00 +13°C° 0 mm 1 mps 724 mmHg 80%
    22:00 +12°C° 0 mm 1 mps 725 mmHg 86%
    23:00 +11°C° 0 mm 1 mps 725 mmHg 86%

    Tomorrow, 24 May, Friday

    Time Temperature Precipitation Wind Pressure Humidity
    00:00 +11°C° 0 mm 1 mps 725 mmHg 86%
    01:00 +10°C° 0 mm 1 mps 725 mmHg 86%
    02:00 +10°C° 0 mm 1 mps 724 mmHg 85%
    03:00 +10°C° 0 mm 1 mps 724 mmHg 85%
    04:00 +9°C° 0 mm 1 mps 724 mmHg 84%
    05:00 +11°C° 0 mm 1 mps 724 mmHg 77%
    06:00 +13°C° 0 mm 1 mps 724 mmHg 70%
    07:00 +15°C° 0 mm 1 mps 724 mmHg 63%
    08:00 +19°C° 0 mm 1 mps 724 mmHg 56%
    09:00 +19°C° 0 mm 0 mps 724 mmHg 49%
    10:00 +22°C° 0 mm 0 mps 724 mmHg 42%
    11:00 +24°C° 0 mm 1 mps 724 mmHg 39%
    12:00 +25°C° 0 mm 1 mps 724 mmHg 37%
    13:00 +25°C° 0 mm 1 mps 723 mmHg 35%
    14:00 +25°C° 0 mm 1 mps 723 mmHg 38%
    15:00 +24°C° 0 mm 2 mps 722 mmHg 41%
    16:00 +23°C° 0 mm 2 mps 722 mmHg 44%
    17:00 +20°C° 0 mm 2 mps 722 mmHg 53%
    18:00 +20°C° 0 mm 1 mps 722 mmHg 61%
    19:00 +18°C° 0 mm 1 mps 722 mmHg 69%
    20:00 +16°C° 0 mm 1 mps 722 mmHg 75%
    21:00 +13°C° 0 mm 0 mps 722 mmHg 81%
    22:00 +12°C° 0 mm 0 mps 722 mmHg 87%
    23:00 +11°C° 0 mm 0 mps 722 mmHg 87%

    Day after tomorrow, 25 May, Saturday

    Time Temperature Precipitation Wind Pressure Humidity
    00:00 +11°C° 0 mm 0 mps 722 mmHg 88%
    01:00 +12°C° 0 mm 1 mps 722 mmHg 88%
    02:00 +12°C° 0 mm 1 mps 722 mmHg 89%
    03:00 +11°C° 0 mm 1 mps 722 mmHg 89%
    04:00 +11°C° 0 mm 1 mps 722 mmHg 89%
    05:00 +13°C° 0 mm 1 mps 723 mmHg 82%
    06:00 +15°C° 0 mm 1 mps 723 mmHg 75%
    07:00 +17°C° 0 mm 0 mps 723 mmHg 67%
    08:00 +20°C° 0 mm 1 mps 723 mmHg 61%
    09:00 +22°C° 0 mm 1 mps 723 mmHg 56%
    10:00 +24°C° 0 mm 1 mps 723 mmHg 50%
    11:00 +24°C° 0.3 mm 1 mps 723 mmHg 51%
    12:00 +24°C° 0.3 mm 2 mps 723 mmHg 52%
    13:00 +24°C° 0.3 mm 2 mps 723 mmHg 53%
    14:00 +24°C° 0.6 mm 2 mps 722 mmHg 56%
    15:00 +24°C° 0.6 mm 2 mps 722 mmHg 59%
    16:00 +23°C° 0.6 mm 2 mps 722 mmHg 62%
    17:00 +22°C° 0.4 mm 1 mps 722 mmHg 68%
    18:00 +21°C° 0.4 mm 1 mps 722 mmHg 74%
    19:00 +17°C° 0.4 mm 0 mps 722 mmHg 80%
    20:00 +16°C° 0.4 mm 0 mps 722 mmHg 82%
    21:00 +18°C° 0.4 mm 1 mps 722 mmHg 83%
    22:00 +16°C° 0.4 mm 1 mps 722 mmHg 85%
    23:00 +15°C° 0.2 mm 1 mps 722 mmHg 86%

    26 May, Sunday

    Time Temperature Precipitation Wind Pressure Humidity
    00:00 +15°C° 0.2 mm 1 mps 722 mmHg 87%
    01:00 +14°C° 0.2 mm 1 mps 722 mmHg 88%
    02:00 +14°C° 0 mm 1 mps 722 mmHg 89%
    03:00 +14°C° 0 mm 1 mps 722 mmHg 89%
    04:00 +13°C° 0 mm 1 mps 721 mmHg 90%
    05:00 +15°C° 0 mm 1 mps 722 mmHg 84%
    06:00 +18°C° 0 mm 1 mps 722 mmHg 78%
    07:00 +19°C° 0 mm 1 mps 722 mmHg 73%
    08:00 +21°C° 0.2 mm 1 mps 722 mmHg 67%
    09:00 +23°C° 0.2 mm 1 mps 723 mmHg 62%
    10:00 +25°C° 0.2 mm 1 mps 723 mmHg 57%
    11:00 +25°C° 1 mm 1 mps 723 mmHg 60%
    12:00 +24°C° 1 mm 1 mps 723 mmHg 63%
    13:00 +24°C° 1 mm 1 mps 722 mmHg 66%
    14:00 +24°C° 1.2 mm 1 mps 722 mmHg 69%
    15:00 +23°C° 1.2 mm 1 mps 722 mmHg 71%
    16:00 +23°C° 1.2 mm 1 mps 722 mmHg 74%
    17:00 +21°C° 0.9 mm 1 mps 722 mmHg 79%
    18:00 +20°C° 0.9 mm 1 mps 722 mmHg 83%
    19:00 +19°C° 0.9 mm 1 mps 722 mmHg 87%
    20:00 +18°C° 0.7 mm 1 mps 723 mmHg 89%
    21:00 +18°C° 0.7 mm 1 mps 723 mmHg 90%
    22:00 +16°C° 0.7 mm 1 mps 723 mmHg 91%
    23:00 +16°C° 0.7 mm 1 mps 723 mmHg 92%

    27 May, Monday

    Time Temperature Precipitation Wind Pressure Humidity
    00:00 +14°C° 0.7 mm 0 mps 723 mmHg 92%
    01:00 +14°C° 0.7 mm 0 mps 723 mmHg 93%
    02:00 +14°C° 0.5 mm 0 mps 723 mmHg 93%
    03:00 +13°C° 0.5 mm 0 mps 723 mmHg 94%
    04:00 +13°C° 0.5 mm 0 mps 723 mmHg 94%
    05:00 +13°C° 0.3 mm 0 mps 723 mmHg 92%
    06:00 +15°C° 0.3 mm 1 mps 723 mmHg 91%
    07:00 +15°C° 0.3 mm 1 mps 723 mmHg 89%
    08:00 +15°C° 0.4 mm 1 mps 723 mmHg 86%
    09:00 +15°C° 0.4 mm 1 mps 723 mmHg 83%
    10:00 +15°C° 0.4 mm 0 mps 723 mmHg 80%
    11:00 +16°C° 0.4 mm 1 mps 723 mmHg 79%
    12:00 +16°C° 0.4 mm 1 mps 722 mmHg 77%
    13:00 +16°C° 0.4 mm 1 mps 722 mmHg 75%
    14:00 +18°C° 0.2 mm 1 mps 722 mmHg 73%
    15:00 +17°C° 0.2 mm 0 mps 721 mmHg 71%
    16:00 +17°C° 0.2 mm 0 mps 721 mmHg 68%
    17:00 +16°C° 0 mm 0 mps 721 mmHg 73%
    18:00 +15°C° 0 mm 0 mps 720 mmHg 77%
    19:00 +14°C° 0 mm 0 mps 720 mmHg 81%
    20:00 +14°C° 0 mm 0 mps 720 mmHg 84%
    21:00 +13°C° 0 mm 0 mps 720 mmHg 87%
    22:00 +12°C° 0 mm 0 mps 720 mmHg 90%
    23:00 +12°C° 0 mm 0 mps 719 mmHg 90%

    28 May, Tuesday

    Time Temperature Precipitation Wind Pressure Humidity
    00:00 +13°C° 0 mm 1 mps 719 mmHg 90%
    01:00 +12°C° 0 mm 1 mps 719 mmHg 90%
    02:00 +12°C° 0 mm 1 mps 718 mmHg 90%
    03:00 +12°C° 0 mm 1 mps 718 mmHg 90%
    04:00 +12°C° 0 mm 1 mps 718 mmHg 89%
    05:00 +13°C° 0.1 mm 1 mps 718 mmHg 87%
    06:00 +13°C° 0.1 mm 0 mps 718 mmHg 84%
    07:00 +14°C° 0.1 mm 0 mps 718 mmHg 82%
    08:00 +15°C° 0.2 mm 0 mps 718 mmHg 81%
    09:00 +16°C° 0.2 mm 0 mps 718 mmHg 80%
    10:00 +18°C° 0.2 mm 1 mps 718 mmHg 79%
    11:00 +20°C° 0.3 mm 1 mps 717 mmHg 76%
    12:00 +21°C° 0.3 mm 1 mps 717 mmHg 72%
    13:00 +22°C° 0.3 mm 1 mps 717 mmHg 68%
    14:00 +22°C° 0.6 mm 1 mps 717 mmHg 68%
    15:00 +22°C° 0.6 mm 1 mps 716 mmHg 68%
    16:00 +21°C° 0.6 mm 2 mps 716 mmHg 68%
    17:00 +21°C° 0.6 mm 1 mps 716 mmHg 74%
    18:00 +20°C° 0.6 mm 1 mps 716 mmHg 81%
    19:00 +19°C° 0.6 mm 1 mps 715 mmHg 87%
    20:00 +18°C° 0 mm 1 mps 716 mmHg 90%
    21:00 +16°C° 0 mm 1 mps 716 mmHg 92%
    22:00 +15°C° 0 mm 1 mps 716 mmHg 95%
    23:00 +14°C° 0 mm 1 mps 716 mmHg 95%
    Show more